Regional Weather Roundup
Issued by NWS Cleveland, OH

Home | Current Version | Previous Version | Graphics & Text | Print | Product List | Glossary On
Versions: 1 2 3 4 5 6 7 8 9 10 11 12 13 14 15 16 17 18 19 20 21 22 23 24 25 26 27 28 29 30 31 32 33 34 35 36 37 38 39 40 41 42 43 44 45 46 47 48 49 50
000
ASUS41 KCLE 271510
RWRCLE
OHIO REGIONAL WEATHER ROUNDUP
NATIONAL WEATHER SERVICE WILMINGTON, OH
1100 AM EDT THU JUL 27 2017

NOTE: "FAIR" INDICATES FEW OR NO CLOUDS BELOW 12,000 FEET WITH NO
SIGNIFICANT WEATHER AND/OR OBSTRUCTIONS TO VISIBILITY.

OHZ001>008-015>018-024>027-034-035-043-044-271600-
   NORTHWEST OHIO

CITY           SKY/WX    TMP DP  RH WIND       PRES   REMARKS
DEFIANCE       FAIR      77  68  73 CALM      29.93S
FINDLAY        FAIR      80  68  66 SE5       29.92F
TOLEDO EXPRESS CLOUDY    75  68  78 E6        29.93S
TOLEDO EXEC    CLOUDY    77  69  76 NE3       29.95R
LIMA           CLOUDY    74  70  87 S6        29.94S
$$

OHZ009>014-019>023-028>033-038-089-271600-
   NORTHEAST OHIO

CITY           SKY/WX    TMP DP  RH WIND       PRES   REMARKS
CLE-HOPKINS    FAIR      82  65  56 W3        29.96F
CLE-LAKEFRONT  FAIR      80  61  52 NW5       29.94F
CUY CO. ARPT   MOSUNNY   81  66  61 W5          N/A
LORAIN-ELYRIA  FAIR      78  63  59 SW5       29.95F
ASHTABULA      FAIR      75  67  76 VRB3      29.98F
AKRON-CANTON   PTSUNNY   78  61  55 CALM      29.98F
WOOSTER        FAIR      76  65  68 VRB3      29.98F
MANSFIELD      FAIR      78  67  68 S6        29.97F
YOUNGSTOWN     PTSUNNY   75  64  68 W5        29.99F
$$

OHZ042-051>053-060>062-070>072-077>081-271600-
  SOUTHWEST OHIO

CITY           SKY/WX    TMP DP  RH WIND       PRES   REMARKS
CINC-COVINGTON CLOUDY    79  76  90 W6        29.97S
CINC-LUNKEN    FAIR      77  76  96 CALM      29.96S
HAMILTON       LGT RAIN  78  75  90 SW7       29.97S FOG
DAYTON         CLOUDY    76  70  82 CALM      29.96F
WRIGHT-PAT AFB PTSUNNY   74  72  91 CALM      29.95F
DAYTON GENERAL CLOUDY    77  71  82 W3        29.95F
WILMINGTON     PTSUNNY   77  73  87 W5        29.96F
$$

OHZ036-037-039>041-045>050-054>059-063>069-073>076-082>088-271600-
  CENTRAL AND SOUTHEAST OHIO

CITY           SKY/WX    TMP DP  RH WIND       PRES   REMARKS
COLUMBUS       CLOUDY    79  68  69 SW7       29.96S
OSU AIRPORT    LGT RAIN  75  69  81 W8        29.97R
BOLTON FIELD   LGT RAIN  73  68  83 SW5       29.98R
RICKENBACK AFB PTSUNNY   76  68  78 W8        29.96R
NEWARK         FAIR      80  68  66 SE6       29.95F
MARION         PTSUNNY   78  67  68 S9        29.96F
LANCASTER      FAIR      78  69  73 CALM      29.95F
ZANESVILLE     FAIR      75  67  76 CALM      29.96F
NEW PHILLY     FAIR      78  68  71 SE3       29.98F
$$




USA.gov is the U.S. government's official web portal to all federal, state and local government web resources and services.